Location: Czekanka
(50.4925°N, 19.2643°E)
Time: 12:12:56
(UTC+00:00)

Cosmos 1898 Rocket - Pass Details

Date: 15 June 2024
Orbit: 751 x 781 km, 74.0° (Epoch: 16 July)

Event Time Altitude Azimuth Distance (km) Brightness Sun altitude
Exits shadow 01:01:17 12° 230° (SW) 2,145 5.2 -10.2°
Maximum altitude 01:05:52 46° 301° (WNW) 1,014 4.1 -9.8°
Drops below altitude 10° 01:10:51 10° 15° (NNE) 2,286 7.3 -9.3°
Sets 01:13:19 0° 22° (NNE) 3,215 8.6 -9.1°
